Regional Weather Roundup
Issued by NWS

Home | Current Version | Previous Version | Text Only | Print | Product List | Glossary Off
Versions: 1 2 3 4 5 6 7 8 9 10 11 12 13 14 15 16 17 18 19 20 21 22 23 24 25 26 27 28 29 30 31 32 33 34 35 36 37 38 39 40 41 42 43 44 45 46 47 48 49 50

000
ASUS43 KLOT 021600
RWRIL

ILLINOIS REGIONAL WEATHER ROUNDUP
NATIONAL WEATHER SERVICE CHICAGO/ROMEOVILLE IL
1100 AM CDT TUE SEP 02 2014

NOTE: "FAIR" INDICATES FEW OR NO CLOUDS BELOW 12,000 FEET WITH NO
SIGNIFICANT WEATHER AND/OR OBSTRUCTIONS TO VISIBILITY.

* THESE STATIONS ARE NOT UNDER NWS QUALITY CONTROL. THEY ALSO MAY NOT
  REPORT WEATHER SUCH AS PRECIPITATION OR FOG.

ILZ001-002-007-009-015-016-024-021700-
NORTHWEST ILLINOIS

CITY           SKY/WX    TMP DP  RH WIND       PRES   REMARKS
MOLINE         SUNNY     73  59  61 N7        29.95R
STERLING*      MOSUNNY   72  59  64 NE8       29.95F
$$

ILZ003-004-008-010-011-017-018-021700-
NORTH CENTRAL ILLINOIS

CITY           SKY/WX    TMP DP  RH WIND       PRES   REMARKS
ROCKFORD       PTSUNNY   74  60  61 W15       29.95R
$$

ILZ005-006-012>014-019>023-021700-
NORTHEAST ILLINOIS

CITY           SKY/WX    TMP DP  RH WIND       PRES   REMARKS
CHICAGO-OHARE  PTSUNNY   76  59  55 W5        29.90F
CHICAGO-MIDWAY PTSUNNY   79  63  57 SW7       29.90F HX  80
AURORA         MOSUNNY   77  61  57 NW7       29.93R
WAUKEGAN       MOSUNNY   76  60  57 SW7       29.90S
DUPAGE AIRPORT MOSUNNY   78  63  59 W7        29.92R HX  80
WHEELING       MOSUNNY   78  62  57 W8        29.92S HX  80
NORTHERLY ISL    N/A     73  64  73 NE5         N/A
$$

LMZ740>746-021700-
SOUTHERN LAKE MICHIGAN

STATION/POSITION SKY/WX   TEMP    WIND        PRES    VSBY  WAVE
                          AIR SEA DIR/SP/G                  HT/PER
                          (F)     (DEG/KT/KT) (MB)    (MI)  (FT/S)
SOUTHERN BUOY              69 70  300/  2/  4 1012.3R         1
WAUKEGAN HARBOR            74     150/  5/  6   N/A
HARRISON CRIB              70     350/  3/  3   N/A
BURNHAM HARBOR             73      70/  4/  5   N/A
CALUMET HARBOR             75     200/  2/  4 1011.7R
MICHIGAN CITY              70     220/ 11/ 12   N/A
MICHIGAN CITY 6N           72 72  250/  6/  8   N/A           1/ 2
ST. JOSEPH                 71 72  200/  4/  6   N/A           1/ 3
$$

ILZ025>027-034>036-040-047-049-050-058-095>099-021700-
WEST-CENTRAL ILLINOIS

CITY           SKY/WX    TMP DP  RH WIND       PRES   REMARKS
QUINCY         CLOUDY    76  68  76 NW8       29.96R
MACOMB*        PTSUNNY   76  68  77 NW3       29.97S
$$

ILZ028>032-037-038-041>044-048-051>054-059>061-021700-
CENTRAL ILLINOIS

CITY           SKY/WX    TMP DP  RH WIND       PRES   REMARKS
DECATUR        CLOUDY    73  69  87 W6        29.96S
PEORIA         PTSUNNY   77  68  73 NW5       29.94S
SPRINGFIELD    CLOUDY    75  68  78 VRB5      29.96S
TAYLORVILLE    NOT AVBL
$$

ILZ033-039-045-046-055>057-062-063-021700-
EAST-CENTRAL ILLINOIS

CITY           SKY/WX    TMP DP  RH WIND       PRES   REMARKS
CHAMPAIGN      CLOUDY    72  68  87 W8        29.97R
MATTOON        CLOUDY    71  68  90 W3        29.96S
$$

ILZ079-100>102-021700-
SOUTHWEST ILLINOIS

CITY           SKY/WX    TMP DP  RH WIND       PRES   REMARKS
ALTON          CLOUDY    73  70  88 W7        29.97R
BELLEVILLE     CLOUDY    77  73  88 VRB7      29.95S
CAHOKIA*       CLOUDY    77  70  79 W10       29.96R
$$

ILZ064>066-069>071-074>076-080>082-084>086-088>090-092>094-021700-
SOUTH-CENTRAL ILLINOIS

CITY           SKY/WX    TMP DP  RH WIND       PRES   REMARKS
CARBONDALE     CLOUDY    80  72  76 SW7       29.96S HX  84
MARION         PTSUNNY   81  75  83 SW6       29.97R HX  86
MT. VERNON     CLOUDY    79  70  73 W8        29.96S HX  81
$$

ILZ067-068-072-073-078-083-087-091-021700-
SOUTHEAST ILLINOIS

CITY           SKY/WX    TMP DP  RH WIND       PRES   REMARKS
LAWRENCEVILLE  CLOUDY    76  71  85 S8        29.95F
ROBINSON*      HVY RAIN  73  71  95 SW6       29.97R
$$

ABBREVIATIONS USED IN REMARKS
   TC - TEMPERATURE IN CELSIUS
  WCI - WIND CHILL INDEX
   HX - HEAT INDEX
  VSB - VISIBILITY
$$




USA.gov is the U.S. government's official web portal to all federal, state and local government web resources and services.